Погода в Львове

Погода в Львове : погода сейчас, прогноз погоды и архив. Всё, что Вы хотите узнать о погоде в Львове!

Поиск расширенной информации на нашем сайте:

Полезная информация:

Другие новости

Новости СМИ2

Главная страница сайта

Новости сайта

03.07.2017

Напоминаем, что на нашем специализированном сайте Метеоцентр.Азия вы можете получить высокодетализированные автоматические прогнозы погоды по пунктам России, СНГ и мира в авиационном формате (включающие направление и скорость ветра, видимость, явления погоды, количество и форму облачности, нижнюю и верхнюю границу облачности).

Рекомендуем:

Погода в Львове - сегодня

Время (UTC), дата Ветер
(°,м/с) 
Видим.   Явления Облачность Т
(°С)
Тd
(°С)
f(%) Тe
(°С)
Pmin
(гПа)
dP
(гПа)
Po
(мм)
O2
(г/м3)
Тmin Tmax R s Состояние
почвы
06 15.09.19 тихо ()   10 км  {туман}  4/0 верхняя 
[Ci fib]
+7.3 +6.2 93 +7  1028.9  -0.4  742  290  +2.8         
12 15.09.19 250 (З) 10 км    4/0 верхняя 
[Ci fib]
+19.4 +4 36 +20  1022.7  -2.7  739  277           
15 15.09.19 260 (З) 10 км    4/0 верхняя 
[Ci fib]
+20.5 +4.9 36 +21  1019.8  -2.7  737  275           
18 15.09.19 тихо ()   10 км    6/0 верхняя 
[Ci fib]
+13.7 +5.5 58 +14  1019.5  -1.1  736  281    +20.9       
21 15.09.19 тихо ()   10 км    6/0 верхняя 
[Ci fib]
+11.1 +6 71 +11  1018.9  -0.9  735  284           
00 16.09.19 230 (ЮЗ) 10 км    6/0 верхняя 
[Ci fib]
+10.9 +6.3 73 +12  1018.2  -0.7  735  284           
03 16.09.19 тихо ()   10 км    4/0 верхняя 
[Ci fib]
+9.2 +6 80 +9  1017.3  -1.1  734  285           
06 16.09.19 230 (ЮЗ) 10 км    8/0 средняя 
[Ac trans]
+13.2 +8.5 73 +14  1016.4  -0.3  734  280  +7.3         
09 16.09.19 290 (З) 10 км    6/0 средняя 
[Ac trans]
+20.3 +10.9 55 +23  1015.1  -0.4  733  273           
12 16.09.19 310 (СЗ) 10 км    8/4 1000 м кучево-дожд., средняя 
[Cb calv|Ac trans]
+19 +9.7 55 +20  1014.5  -0.7  733  274           
15 16.09.19 310 (СЗ) 10 км    9/9 1300 м кучево-дожд. 
[Cb calv]
+17.6 +10.6 64 +20  1013.6  -1  732  275           
18 16.09.19 310 (СЗ) 10 км  слаб. ливневой дождь  10/10 1000 м кучево-дожд. 
[Cb calv]
+13.7 +8.8 72 +14  1014.5  0.3  732  279    +21.4  0.0     
21 16.09.19 280 (З) 10 км  {ливн. осадки}  10/10 1410 м 
[Sc]
+12.4 +9.9 85 +15  1014.4  -0.2  732  280           
00 17.09.19 280 (З) 10 км  {ливн. осадки}  10/10 1470 м 
[Sc]
+12.1 +10.4 89 +15  1014.2  -0.3  732  280           
03 17.09.19 280 (З) 10 км    10/10 1200 м 
[Sc]
+11.6 +9.7 88 +14  1013.9  -0.3  732  281           
06 17.09.19 290 (З) 10 км    6/6 210 м 
[St]
+11.3 +9.5 89 +13  1014.5  0.5  732  282  +10.8    0.0     
09 17.09.19 280 (З) 10 км    6/6 1020 м 
[Sc]
+14.5 +6.3 58 +14  1013.4  -0.7  732  279           
12 17.09.19 290 (З) 10 км    6/6 1380 м 
[Sc]
+15.7 +6.4 54 +16  1011.5  -1.6  730  277           
15 17.09.19 280 (З) 10 км    8/8 1200 м 
[Sc]
+14.8 +6.2 56 +14  1009.9  -1.7  729  278           
18 17.09.19 тихо ()   10 км    4/0 средняя 
[Ac trans]
+10.2 +6.5 78 +10  1009.8  -0.7  729  282    +16.4       
21 17.09.19 270 (З) 10 км    8/8 1080 м 
[Sc]
+12.1 +7.1 71 +12  1008.1  -1.4  728  279           
00 18.09.19 290 (З) 4{18}  10 км  {ливн. осадки}  8/8 1260 м 
[Sc]
+8.5 +6.4 87 +7  1010.1  1.5  729  284      0.3     
03 18.09.19 290 (З) 10 км  слаб. ливневой дождь  10/10 700 м кучево-дожд. 
[Cb calv]
+7.3 +5.1 86 +6  1010.9  0.6  729  285           
06 18.09.19 270 (З) 10 км  {ливн. осадки}  8/8 600 м кучево-дожд. 
[Cb calv]
+8.2 +3.6 73 +6  1012.3  1.4  730  285  +7.1       
09 18.09.19 290 (З) 10 км  {ливн. осадки}  9/9 750 м кучево-дожд. 
[Cb calv]
+9.5 +4.4 70 +7  1014.4  2.2  732  284           
Время (UTC), дата Ветер
(°,м/с) 
Видим.   Явления Облачность Т
(°С)
Тd
(°С)
f(%) Тe
(°С)
Pmin
(гПа)
dP
(гПа)
Po
(мм)
O2
(г/м3)
Тmin Tmax R s Состояние
почвы

Для получения пояснительной информации подведите курсор к названию столбца.

ПОГОДА в Львове - архив

Всё, что Вы хотите узнать о погоде в Львове - удобно и подробно!

Выберите нужную дату (начиная с 1 января 2018* года) и нажмите кнопку "Найти".
Будут отображены архивные сводки погоды по пункту Львов, начиная с указанной даты.


Отображать данные в формате CSV (для использования в таблицах Excel)


Внимание! Наш архив погоды предназначен исключительно для личного некоммерческого использования в познавательных целях. Если Вам необходимы официальные справки о состоянии погоды (для производственных, юридических, коммерческих и т.п. целей), обращайтесь в органы Росгидромета.

*Примечание: данная дата относится к архиву по метеостанциям СССР (Россия, СНГ, Балтия).
Архив по метеостанциям Зарубежной Европы и Азии (кроме Китая) хранится 10 дней, по другим регионам земного шара (Китай, Африка, Америка, Австралия, Океания) - 1 день.

Львов - район местоположения метеостанции


Название, широта, долгота, высота метеостанции:
Львов 49.8°ш. 23.9°д. 323 м над ур. моря [Украина]

Дополнительная информация

В oтличие oт бoльшинства пoгoдных сайтoв мы публикуем пoдрoбную метеoинфoрмацию в детальнoм прoфессиoнальнoм фoрмате.

Характеристики температуры и влажнoсти вoздуха измеряются на высoте 2 м в тени вдали oт зданий и деревьев.
Скoрoсть ветра измеряется на высoте 10 м (на урoвне рoста челoвека скoрoсть ветра ниже в 1.5-2 раза). Если метеoстанция нахoдится в гoрoде или в лесу, тo скoрoсть ветра занижена на 2-4 м/с пo сравнению с oткрытым местoм. Скoрoсть ветра над акватoриями крупных рек и oзёр, а также на вершинах хoлмoв на 2-5 м/с выше, чем в oбычных услoвиях.
Атмoсфернoе давление в разных тoчках местнoсти мoжет значительнo oтличаться oт давления на метеoстанции, в зависимoсти oт услoвий рельефа (при пoдъёме на 10 м давление пoнижается примернo на 1 мм рт.ст.).